Time,TemperatureF,DewpointF,PressureIn,WindDirection,WindDirectionDegrees,WindSpeedMPH,WindSpeedGustMPH,Humidity,HourlyPrecipIn,Conditions,Clouds,dailyrainin,SoftwareType,DateUTC
2013-05-31 00:02:00,66.0,64.0,-100.00,South,190,12.0,18.0,91,-99.99,,,-99.99,,2013-05-31 05:02:00,
2013-05-31 00:12:00,66.0,64.0,-100.00,South,190,12.0,18.0,91,-99.99,,,-99.99,,2013-05-31 05:12:00,
2013-05-31 00:22:00,66.0,64.0,-100.00,South,190,12.0,18.0,91,-99.99,,,-99.99,,2013-05-31 05:22:00,
2013-05-31 00:52:00,64.0,62.0,-100.00,South,190,7.0,15.0,91,-99.99,,,-99.99,,2013-05-31 05:52:00,
2013-05-31 01:02:00,64.0,62.0,-100.00,South,190,7.0,15.0,91,-99.99,,,-99.99,,2013-05-31 06:02:00,
2013-05-31 01:12:00,64.0,62.0,-100.00,South,190,7.0,15.0,91,-99.99,,,-99.99,,2013-05-31 06:12:00,
2013-05-31 01:21:00,64.0,62.0,-100.00,South,190,7.0,15.0,91,-99.99,,,-99.99,,2013-05-31 06:21:00,
2013-05-31 01:52:00,64.0,61.0,-100.00,South,190,11.0,18.0,91,-99.99,,,-99.99,,2013-05-31 06:52:00,
2013-05-31 02:02:00,64.0,61.0,-100.00,South,190,11.0,18.0,91,-99.99,,,-99.99,,2013-05-31 07:02:00,
2013-05-31 02:11:00,64.0,61.0,-100.00,South,190,11.0,18.0,91,-99.99,,,-99.99,,2013-05-31 07:11:00,
2013-05-31 02:21:00,64.0,61.0,-100.00,South,190,11.0,18.0,91,-99.99,,,-99.99,,2013-05-31 07:21:00,
2013-05-31 02:53:00,64.0,61.0,-100.00,South,190,7.0,14.0,92,-99.99,,,-99.99,,2013-05-31 07:53:00,
2013-05-31 03:02:00,64.0,61.0,-100.00,South,190,7.0,14.0,92,-99.99,,,-99.99,,2013-05-31 08:02:00,
2013-05-31 03:11:00,64.0,61.0,-100.00,South,190,7.0,14.0,92,-99.99,,,-99.99,,2013-05-31 08:11:00,
2013-05-31 03:22:00,64.0,61.0,-100.00,South,190,7.0,14.0,92,-99.99,,,-99.99,,2013-05-31 08:22:00,
2013-05-31 03:52:00,63.0,62.0,-100.00,South,190,6.0,12.0,94,-99.99,,,-99.99,,2013-05-31 08:52:00,
2013-05-31 04:01:00,63.0,62.0,-100.00,South,190,6.0,12.0,94,-99.99,,,-99.99,,2013-05-31 09:01:00,
2013-05-31 04:11:00,63.0,62.0,-100.00,South,190,6.0,12.0,94,-99.99,,,-99.99,,2013-05-31 09:11:00,
2013-05-31 04:21:00,63.0,62.0,-100.00,South,190,6.0,12.0,94,-99.99,,,-99.99,,2013-05-31 09:21:00,
2013-05-31 04:53:00,63.0,62.0,-100.00,South,190,4.0,10.0,96,-99.99,,,-99.99,,2013-05-31 09:53:00,
2013-05-31 05:02:00,63.0,62.0,-100.00,South,190,4.0,10.0,96,-99.99,,,-99.99,,2013-05-31 10:02:00,
2013-05-31 05:12:00,63.0,62.0,-100.00,South,190,4.0,10.0,96,-99.99,,,-99.99,,2013-05-31 10:12:00,
2013-05-31 05:22:00,63.0,62.0,-100.00,South,190,4.0,10.0,96,-99.99,,,-99.99,,2013-05-31 10:22:00,
2013-05-31 05:52:00,63.0,62.0,-100.00,South,190,7.0,15.0,96,-99.99,,,-99.99,,2013-05-31 10:52:00,
2013-05-31 06:02:00,63.0,62.0,-100.00,South,190,7.0,15.0,96,-99.99,,,-99.99,,2013-05-31 11:02:00,
2013-05-31 06:12:00,63.0,62.0,-100.00,South,190,7.0,15.0,96,-99.99,,,-99.99,,2013-05-31 11:12:00,
2013-05-31 06:22:00,63.0,62.0,-100.00,South,190,7.0,15.0,96,-99.99,,,-99.99,,2013-05-31 11:22:00,
2013-05-31 06:52:00,63.0,63.0,-100.00,South,190,6.0,14.0,98,-99.99,,,-99.99,,2013-05-31 11:52:00,
2013-05-31 07:01:00,63.0,63.0,-100.00,South,190,6.0,14.0,98,-99.99,,,-99.99,,2013-05-31 12:01:00,
2013-05-31 07:11:00,63.0,63.0,-100.00,South,190,6.0,14.0,98,-99.99,,,-99.99,,2013-05-31 12:11:00,
2013-05-31 07:21:00,63.0,63.0,-100.00,South,190,6.0,14.0,98,-99.99,,,-99.99,,2013-05-31 12:21:00,
2013-05-31 07:30:00,64.0,63.0,-100.00,South,190,2.0,6.0,96,-99.99,,,-99.99,,2013-05-31 12:30:00,
2013-05-31 07:52:00,64.0,63.0,-100.00,South,190,2.0,6.0,96,-99.99,,,-99.99,,2013-05-31 12:52:00,
2013-05-31 08:01:00,64.0,63.0,-100.00,South,190,2.0,6.0,96,-99.99,,,-99.99,,2013-05-31 13:01:00,
2013-05-31 08:11:00,64.0,63.0,-100.00,South,190,2.0,6.0,96,-99.99,,,-99.99,,2013-05-31 13:11:00,
2013-05-31 08:21:00,64.0,63.0,-100.00,South,190,2.0,6.0,96,-99.99,,,-99.99,,2013-05-31 13:21:00,
2013-05-31 08:52:00,67.0,63.0,-100.00,South,190,7.0,16.0,89,-99.99,,,-99.99,,2013-05-31 13:52:00,
2013-05-31 09:02:00,67.0,63.0,-100.00,South,190,7.0,16.0,89,-99.99,,,-99.99,,2013-05-31 14:02:00,
2013-05-31 09:11:00,67.0,63.0,-100.00,South,190,7.0,16.0,89,-99.99,,,-99.99,,2013-05-31 14:11:00,
2013-05-31 09:21:00,67.0,63.0,-100.00,South,190,7.0,16.0,89,-99.99,,,-99.99,,2013-05-31 14:21:00,
2013-05-31 09:30:00,69.0,64.0,-100.00,SSW,195,12.0,21.0,82,-99.99,,,-99.99,,2013-05-31 14:30:00,
2013-05-31 09:52:00,69.0,64.0,-100.00,SSW,195,12.0,21.0,82,-99.99,,,-99.99,,2013-05-31 14:52:00,
2013-05-31 10:01:00,69.0,64.0,-100.00,SSW,195,12.0,21.0,82,-99.99,,,-99.99,,2013-05-31 15:01:00,
2013-05-31 10:11:00,69.0,64.0,-100.00,SSW,195,12.0,21.0,82,-99.99,,,-99.99,,2013-05-31 15:11:00,
2013-05-31 10:21:00,69.0,64.0,-100.00,SSW,195,12.0,21.0,82,-99.99,,,-99.99,,2013-05-31 15:21:00,
2013-05-31 10:31:00,74.0,65.0,-100.00,SSW,195,6.0,15.0,74,-99.99,,,-99.99,,2013-05-31 15:31:00,
2013-05-31 10:53:00,74.0,65.0,-100.00,SSW,195,6.0,15.0,74,-99.99,,,-99.99,,2013-05-31 15:53:00,
2013-05-31 11:03:00,74.0,65.0,-100.00,SSW,195,6.0,15.0,74,-99.99,,,-99.99,,2013-05-31 16:03:00,
2013-05-31 11:12:00,74.0,65.0,-100.00,SSW,195,6.0,15.0,74,-99.99,,,-99.99,,2013-05-31 16:12:00,
2013-05-31 11:22:00,74.0,65.0,-100.00,SSW,195,6.0,15.0,74,-99.99,,,-99.99,,2013-05-31 16:22:00,
2013-05-31 11:30:00,74.0,64.0,-100.00,SSW,195,10.0,24.0,70,-99.99,,,-99.99,,2013-05-31 16:30:00,
2013-05-31 11:52:00,74.0,64.0,-100.00,SSW,195,10.0,24.0,70,-99.99,,,-99.99,,2013-05-31 16:52:00,
2013-05-31 12:02:00,74.0,64.0,-100.00,SSW,195,10.0,24.0,70,-99.99,,,-99.99,,2013-05-31 17:02:00,
2013-05-31 12:12:00,74.0,64.0,-100.00,SSW,195,10.0,24.0,70,-99.99,,,-99.99,,2013-05-31 17:12:00,
2013-05-31 12:22:00,74.0,64.0,-100.00,SSW,195,10.0,24.0,70,-99.99,,,-99.99,,2013-05-31 17:22:00,
2013-05-31 12:30:00,74.0,63.0,-100.00,South,190,13.0,24.0,67,-99.99,,,-99.99,,2013-05-31 17:30:00,
2013-05-31 12:52:00,74.0,63.0,-100.00,South,190,13.0,24.0,67,-99.99,,,-99.99,,2013-05-31 17:52:00,
2013-05-31 13:02:00,74.0,63.0,-100.00,South,190,13.0,24.0,67,-99.99,,,-99.99,,2013-05-31 18:02:00,
2013-05-31 13:12:00,74.0,63.0,-100.00,South,190,13.0,24.0,67,-99.99,,,-99.99,,2013-05-31 18:12:00,
2013-05-31 13:22:00,74.0,63.0,-100.00,South,190,13.0,24.0,67,-99.99,,,-99.99,,2013-05-31 18:22:00,
2013-05-31 15:52:00,78.0,58.0,-100.00,SSW,195,14.0,27.0,50,-99.99,,,-99.99,,2013-05-31 20:52:00,
2013-05-31 16:01:00,78.0,58.0,-100.00,SSW,195,14.0,27.0,50,-99.99,,,-99.99,,2013-05-31 21:01:00,
2013-05-31 16:11:00,78.0,58.0,-100.00,SSW,195,14.0,27.0,50,-99.99,,,-99.99,,2013-05-31 21:11:00,
2013-05-31 16:22:00,78.0,58.0,-100.00,SSW,195,14.0,27.0,50,-99.99,,,-99.99,,2013-05-31 21:22:00,
2013-05-31 16:30:00,79.0,58.0,-100.00,SSW,195,14.0,27.0,49,-99.99,,,-99.99,,2013-05-31 21:30:00,
2013-05-31 16:54:00,79.0,58.0,-100.00,SSW,195,14.0,27.0,49,-99.99,,,-99.99,,2013-05-31 21:54:00,
2013-05-31 17:02:00,79.0,58.0,-100.00,SSW,195,14.0,27.0,49,-99.99,,,-99.99,,2013-05-31 22:02:00,
2013-05-31 17:12:00,79.0,58.0,-100.00,SSW,195,14.0,27.0,49,-99.99,,,-99.99,,2013-05-31 22:12:00,
2013-05-31 17:22:00,79.0,58.0,-100.00,SSW,195,14.0,27.0,49,-99.99,,,-99.99,,2013-05-31 22:22:00,
2013-05-31 17:30:00,78.0,59.0,-100.00,SSW,200,10.0,20.0,52,-99.99,,,-99.99,,2013-05-31 22:30:00,
2013-05-31 17:53:00,78.0,59.0,-100.00,SSW,200,10.0,20.0,52,-99.99,,,-99.99,,2013-05-31 22:53:00,
2013-05-31 18:02:00,78.0,59.0,-100.00,SSW,200,10.0,20.0,52,-99.99,,,-99.99,,2013-05-31 23:02:00,
2013-05-31 18:12:00,78.0,59.0,-100.00,SSW,200,10.0,20.0,52,-99.99,,,-99.99,,2013-05-31 23:12:00,
2013-05-31 18:21:00,78.0,59.0,-100.00,SSW,200,10.0,20.0,52,-99.99,,,-99.99,,2013-05-31 23:21:00,
2013-05-31 18:52:00,76.0,60.0,-100.00,SSW,200,10.0,25.0,57,-99.99,,,-99.99,,2013-05-31 23:52:00,
2013-05-31 19:01:00,76.0,60.0,-100.00,SSW,200,10.0,25.0,57,-99.99,,,-99.99,,2013-06-01 00:01:00,
2013-05-31 19:12:00,76.0,60.0,-100.00,SSW,200,10.0,25.0,57,-99.99,,,-99.99,,2013-06-01 00:12:00,
2013-05-31 19:22:00,76.0,60.0,-100.00,SSW,200,10.0,25.0,57,-99.99,,,-99.99,,2013-06-01 00:22:00,
2013-05-31 19:31:00,74.0,60.0,-100.00,SSW,200,7.0,17.0,62,-99.99,,,-99.99,,2013-06-01 00:31:00,
2013-05-31 19:52:00,74.0,60.0,-100.00,SSW,200,7.0,17.0,62,-99.99,,,-99.99,,2013-06-01 00:52:00,
2013-05-31 20:01:00,74.0,60.0,-100.00,SSW,200,7.0,17.0,62,-99.99,,,-99.99,,2013-06-01 01:01:00,
2013-05-31 20:11:00,74.0,60.0,-100.00,SSW,200,7.0,17.0,62,-99.99,,,-99.99,,2013-06-01 01:11:00,
2013-05-31 20:22:00,74.0,60.0,-100.00,SSW,200,7.0,17.0,62,-99.99,,,-99.99,,2013-06-01 01:22:00,
2013-05-31 20:52:00,71.0,61.0,-100.00,SSW,200,6.0,11.0,71,-99.99,,,-99.99,,2013-06-01 01:52:00,
2013-05-31 21:01:00,71.0,61.0,-100.00,SSW,200,6.0,11.0,71,-99.99,,,-99.99,,2013-06-01 02:01:00,
2013-05-31 21:11:00,71.0,61.0,-100.00,SSW,200,6.0,11.0,71,-99.99,,,-99.99,,2013-06-01 02:11:00,
2013-05-31 21:21:00,71.0,61.0,-100.00,SSW,200,6.0,11.0,71,-99.99,,,-99.99,,2013-06-01 02:21:00,
2013-05-31 21:52:00,69.0,62.0,-100.00,SSW,200,3.0,6.0,80,-99.99,,,-99.99,,2013-06-01 02:52:00,
2013-05-31 22:02:00,69.0,62.0,-100.00,SSW,200,3.0,6.0,80,-99.99,,,-99.99,,2013-06-01 03:02:00,
2013-05-31 22:11:00,69.0,62.0,-100.00,SSW,200,3.0,6.0,80,-99.99,,,-99.99,,2013-06-01 03:11:00,
2013-05-31 22:21:00,69.0,62.0,-100.00,SSW,200,3.0,6.0,80,-99.99,,,-99.99,,2013-06-01 03:21:00,
2013-05-31 22:53:00,66.0,63.0,-100.00,SSW,200,2.0,6.0,90,-99.99,,,-99.99,,2013-06-01 03:53:00,
2013-05-31 23:03:00,66.0,63.0,-100.00,SSW,200,2.0,6.0,90,-99.99,,,-99.99,,2013-06-01 04:03:00,
2013-05-31 23:12:00,66.0,63.0,-100.00,SSW,200,2.0,6.0,90,-99.99,,,-99.99,,2013-06-01 04:12:00,
2013-05-31 23:23:00,66.0,63.0,-100.00,SSW,200,2.0,6.0,90,-99.99,,,-99.99,,2013-06-01 04:23:00,
2013-05-31 23:53:00,67.0,64.0,-100.00,SSW,200,4.0,11.0,92,-99.99,,,-99.99,,2013-06-01 04:53:00,